Location: Forst
(46.9333°N, 15.4333°E)
Time: 06:56:38
(UTC+00:00)

Lacrosse 5 rocket - Pass Details

Date: 17 April 2021
Orbit: 460 x 634 km, 57.0° (Epoch: 12 May)

Event Time Altitude Azimuth Distance (km) Brightness Sun altitude
Rises 19:32:15 0° 276° (W) 2,678 5.9 -16.4°
Reaches altitude 10° 19:34:44 10° 290° (WNW) 1,822 5.1 -16.7°
Maximum altitude 19:38:10 25° 347° (NNW) 1,179 3.6 -17.2°
Drops below altitude 10° 19:41:46 10° 43° (NE) 1,916 4.0 -17.7°
Sets 19:44:26 0° 56° (ENE) 2,849 4.8 -18.0°
